Starlink 3300

operational
NORAD ID: 50841 Int'l Des: 2022-001 Owner: SPXS Country: US Constellation: starlink
LEOCIRCULAR

关于 Starlink 3300

正在加载描述...

实时位置

正在加载3D地球...

即将过境

高度历史

Altitude vs Time

uPlot chart will show altitude changes over time

两行轨道根数

1 50841U 22001AQ 26062.59667520 .00000276 00000-0 35398-4 0 9996
2 50841 53.2168 206.4735 0001292 82.9777 277.1362 15.08844430229341
Epoch: Mar 3, 2026 • Age: 30 hours

当前状态

高度 548.2 km
速度 7.59 km/s
星下点 -26.76°S, 160.06°E
发射日期 Jan 6, 2022
运行时间 4.1 years
类型 internet

技术详情

分类 Payload
质量 297.00 kg
干质量 275.00 kg
总质量 297.00 kg
长度 0.20 m
直径 2.80 m
跨度 9.00 m
形状 Box + pan
制造商 SPXS
平台类型 Starlink
阶段状态 In Orbit
所有者/国家 SPXS/US

大型星座

Loading constellations...